Flag for U.S.A. Weather past 2 weeks in Portland, Oregon, U.S.A.

Now
69 °F

Clear.


Feels Like: 69 °F
Forecast: 66 / 97 °F
Wind: 5 mph from North

Location: Portland International Airport

Current Time: Jul 2, 2015 at 5:59:12 AM

Latest Report: Jul 2, 2015 at 4:53 AM


Visibility: 10 mi

Pressure: 29.96 "Hg

Humidity: 66%

Dew point: 57 °F

Location of PortlandLocation

Historic Weather in Portland — Graph

°F

Portland temperature yesterday

Maximum temperature yesterday: 95 °F (at 5:53 PM)
Minimum temperature yesterday: 62 °F (at 5:53 AM)
Average temperature yesterday: 78 °F

Past Weeks' High & Low Weather Summary

 TemperatureHumidityPressure
High95 °F (Jul 1, 5:53 PM)86% (Jun 30, 3:53 AM)30.16 "Hg (Jun 30, 3:53 AM)
Low52 °F (Jun 17, 5:53 AM)19% (Jun 20, 2:53 PM)29.83 "Hg (Jun 26, 6:53 PM)
Average73 °F54%30.00 "Hg
* Reported Jun 17 3:53 AM — Jul 2 3:53 AM, Portland, Weather by CustomWeather, © 2015

Note: Actual official high and low records may vary slightly from our data, if they occured in-between our weather recording intervals... More about our weather records

Advertising

Portland weather history for previous 24 hours

 ConditionsComfort  
Time TempWeatherWind HumidityBarometerVisibility
3:53 AM
Thu, Jul 2
71 °FClear.No wind61%29.96 "Hg10 mi
2:53 AM71 °FClear.No wind63%29.94 "Hg10 mi
1:53 AM73 °FClear.No wind62%29.93 "Hg10 mi
12:53 AM74 °FClear.No wind57%29.93 "Hg10 mi
11:53 PM
Wed, Jul 1
77 °FClear.6 mph54%29.93 "Hg10 mi
10:53 PM80 °FClear.7 mph45%29.92 "Hg10 mi
9:53 PM83 °FSunny.8 mph41%29.89 "Hg10 mi
8:53 PM86 °FSunny.13 mph40%29.87 "Hg10 mi
7:53 PM90 °FSunny.12 mph31%29.86 "Hg10 mi
6:53 PM93 °FSunny.16 mph28%29.85 "Hg10 mi
5:53 PM95 °FSunny.14 mph24%29.85 "Hg10 mi
4:53 PM94 °FSunny.14 mph27%29.86 "Hg10 mi
3:53 PM92 °FSunny.10 mph30%29.88 "Hg10 mi
2:53 PM91 °FPassing clouds.10 mph34%29.89 "Hg10 mi
1:53 PM87 °FSunny.10 mph40%29.92 "Hg10 mi
12:53 PM84 °FSunny.12 mph43%29.94 "Hg10 mi
11:53 AM80 °FSunny.12 mph47%29.96 "Hg10 mi
10:53 AM77 °FSunny.9 mph50%29.97 "Hg10 mi
9:53 AM72 °FSunny.7 mph57%29.98 "Hg10 mi
8:53 AM69 °FSunny.7 mph63%30.00 "Hg10 mi
7:53 AM65 °FSunny.3 mph70%30.01 "Hg10 mi
6:53 AM63 °FSunny.6 mph73%30.01 "Hg10 mi
5:53 AM62 °FClear.5 mph75%30.01 "Hg10 mi
Weather by CustomWeather, © 2015

See weather overviewHow to use our weather pages